Location: Étouvelles
(49.5207°N, 3.5808°E)
Time: 15:59:51
(UTC+00:00)

Cosmos 2333 Rocket - Pass Details

Date: 03 February 2023
Orbit: 837 x 864 km, 70.8° (Epoch: 25 March)

Event Time Altitude Azimuth Distance (km) Brightness Sun altitude
Rises 19:55:39 0° 228° (SW) 3,384 5.8 -31.1°
Reaches altitude 10° 19:58:11 10° 234° (SW) 2,455 5.1 -31.5°
Maximum altitude 20:03:35 46° 307° (NW) 1,131 3.1 -32.4°
Enters shadow 20:04:26 43° 332° (NNW) 1,182 3.1 -32.5°
